| time (UTC) | temp F | wind direction | speed MPH | gust MPH | rain 1hr in | rain 24hr in | rain mn in | humidity % | barometer mb |
| 20260508172137 | 60 | 205 | 8.0 | 9.0 | 0.00 | 0.00 | 0.00 | 40 | 971.6 |
| 20260508171500 | 60 | 207 | 1.0 | 6.0 | 0.00 | 0.00 | 0.00 | 40 | 971.6 |
| 20260508170819 | 60 | 152 | 8.0 | 8.0 | 0.00 | 0.00 | 0.00 | 39 | 971.7 |
| 20260508170142 | 60 | 274 | 2.0 | 5.0 | 0.00 | 0.00 | 0.00 | 41 | 971.7 |
| 20260508165501 | 59 | 283 | 7.0 | 6.0 | 0.00 | 0.00 | 0.00 | 41 | 971.8 |
| 20260508164824 | 59 | 249 | 6.0 | 5.0 | 0.00 | 0.00 | 0.00 | 41 | 971.8 |
| 20260508164143 | 59 | 238 | 4.0 | 5.0 | 0.00 | 0.00 | 0.00 | 42 | 971.8 |
| 20260508163506 | 59 | 200 | 11.0 | 7.0 | 0.00 | 0.00 | 0.00 | 41 | 972.1 |
| 20260508162825 | 59 | 201 | 8.0 | 11.0 | 0.00 | 0.00 | 0.00 | 41 | 972.2 |
| 20260508162148 | 59 | 225 | 9.0 | 4.0 | 0.00 | 0.00 | 0.00 | 42 | 972.1 |
| 20260508161507 | 58 | 193 | 4.0 | 8.0 | 0.00 | 0.00 | 0.00 | 41 | 972.2 |
| 20260508160829 | 58 | 243 | 4.0 | 7.0 | 0.00 | 0.00 | 0.00 | 41 | 972.2 |
| 20260508160149 | 58 | 246 | 4.0 | 10.0 | 0.00 | 0.00 | 0.00 | 41 | 972.3 |
| 20260508155511 | 58 | 262 | 7.0 | 9.0 | 0.00 | 0.00 | 0.00 | 42 | 972.3 |
| 20260508154830 | 58 | 267 | 3.0 | 4.0 | 0.00 | 0.00 | 0.00 | 42 | 972.4 |
| 20260508154153 | 57 | 215 | 0.0 | 4.0 | 0.00 | 0.00 | 0.00 | 43 | 972.6 |
| 20260508152835 | 57 | 194 | 9.0 | 0.0 | 0.00 | 0.00 | 0.00 | 44 | 972.6 |
| 20260508152154 | 57 | 263 | 4.0 | 6.0 | 0.00 | 0.00 | 0.00 | 44 | 972.6 |
| 20260508151517 | 56 | 203 | 2.0 | 8.0 | 0.00 | 0.00 | 0.00 | 44 | 972.7 |
| 20260508150836 | 56 | 139 | 3.0 | 2.0 | 0.00 | 0.00 | 0.00 | 48 | 972.8 |
| 20260508150159 | 56 | 127 | 4.0 | 5.0 | 0.00 | 0.00 | 0.00 | 48 | 972.9 |
| 20260508145518 | 56 | 233 | 3.0 | 5.0 | 0.00 | 0.00 | 0.00 | 48 | 972.9 |
| 20260508144841 | 55 | 194 | 6.0 | 0.0 | 0.00 | 0.00 | 0.00 | 52 | 973.1 |
| 20260508143523 | 54 | 177 | 7.0 | 9.0 | 0.00 | 0.00 | 0.00 | 51 | 973.3 |
| 20260508142842 | 54 | 186 | 6.0 | 0.0 | 0.00 | 0.00 | 0.00 | 54 | 973.3 |
| 20260508142205 | 53 | 201 | 4.0 | 1.0 | 0.00 | 0.00 | 0.00 | 56 | 973.4 |
| 20260508141524 | 53 | 179 | 4.0 | 6.0 | 0.00 | 0.00 | 0.00 | 58 | 973.4 |
| 20260508140847 | 53 | 159 | 6.0 | 4.0 | 0.00 | 0.00 | 0.00 | 58 | 973.5 |
| 20260508140206 | 52 | 152 | 5.0 | 9.0 | 0.00 | 0.00 | 0.00 | 61 | 973.5 |
| 20260508135528 | 52 | 183 | 4.0 | 8.0 | 0.00 | 0.00 | 0.00 | 65 | 973.6 |
| 20260508134848 | 51 | 297 | 3.0 | 0.0 | 0.00 | 0.00 | 0.00 | 68 | 973.7 |
| 20260508134210 | 50 | 190 | 4.0 | 7.0 | 0.00 | 0.00 | 0.00 | 71 | 974.0 |
| 20260508133530 | 49 | 191 | 5.0 | 7.0 | 0.00 | 0.00 | 0.00 | 73 | 974.0 |
| 20260508132852 | 49 | 225 | 5.0 | 0.0 | 0.00 | 0.00 | 0.00 | 75 | 974.0 |
| 20260508132212 | 48 | 203 | 5.0 | 2.0 | 0.00 | 0.00 | 0.00 | 77 | 974.2 |
| 20260508131534 | 47 | 205 | 0.0 | 0.0 | 0.00 | 0.00 | 0.00 | 79 | 974.3 |
| 20260508130853 | 47 | 181 | 5.0 | 0.0 | 0.00 | 0.00 | 0.00 | 80 | 974.5 |
| 20260508130216 | 46 | 159 | 1.0 | 0.0 | 0.00 | 0.00 | 0.00 | 82 | 974.5 |
| 20260508125535 | 45 | 193 | 0.0 | 0.0 | 0.00 | 0.00 | 0.00 | 85 | 974.5 |
| 20260508124858 | 44 | 187 | 0.0 | 0.0 | 0.00 | 0.00 | 0.00 | 89 | 974.8 |
| 20260508124217 | 43 | 187 | 0.0 | 0.0 | 0.00 | 0.00 | 0.00 | 92 | 974.8 |
| 20260508123540 | 42 | 165 | 0.0 | 0.0 | 0.00 | 0.00 | 0.00 | 95 | 974.8 |
| 20260508122859 | 40 | 170 | 0.0 | 0.0 | 0.00 | 0.00 | 0.00 | 98 | 974.8 |
| 20260508114227 | 32 | 339 | 0.0 | 0.0 | 0.00 | 0.00 | 0.00 | 100 | 975.3 |
| 20260508112909 | 31 | 339 | 0.0 | 0.0 | 0.00 | 0.00 | 0.00 | 100 | 975.4 |
| 20260508111551 | 30 | 339 | 0.0 | 0.0 | 0.00 | 0.00 | 0.00 | 100 | 975.4 |
| 20260508110232 | 29 | 339 | 0.0 | 0.0 | 0.00 | 0.00 | 0.00 | 100 | 975.5 |
| 20260508105551 | 29 | 339 | 0.0 | 0.0 | 0.00 | 0.00 | 0.00 | 100 | 975.4 |
| 20260508104914 | 29 | 339 | 0.0 | 0.0 | 0.00 | 0.00 | 0.00 | 100 | 975.4 |
| 20260508104233 | 29 | 339 | 0.0 | 0.0 | 0.00 | 0.00 | 0.00 | 100 | 975.3 |
| 20260508103556 | 29 | 339 | 0.0 | 0.0 | 0.00 | 0.00 | 0.00 | 100 | 975.3 |
| 20260508102237 | 29 | 339 | 0.0 | 0.0 | 0.00 | 0.00 | 0.00 | 100 | 975.2 |
| 20260508101556 | 29 | 339 | 0.0 | 0.0 | 0.00 | 0.00 | 0.00 | 100 | 975.1 |
| 20260508100919 | 29 | 339 | 0.0 | 0.0 | 0.00 | 0.00 | 0.00 | 100 | 975.2 |
| 20260508100238 | 29 | 339 | 0.0 | 0.0 | 0.00 | 0.00 | 0.00 | 100 | 975.3 |
| 20260508095644 | 29 | 339 | 0.0 | 0.0 | 0.00 | 0.00 | 0.00 | 100 | 975.3 |
| 20260508095601 | 29 | 339 | 0.0 | 0.0 | 0.00 | 0.00 | 0.00 | 100 | 975.3 |
| 20260508094920 | 29 | 339 | 0.0 | 0.0 | 0.00 | 0.00 | 0.00 | 100 | 975.5 |
| 20260508094242 | 29 | 339 | 0.0 | 0.0 | 0.00 | 0.00 | 0.00 | 100 | 975.5 |
| 20260508093601 | 29 | 339 | 0.0 | 0.0 | 0.00 | 0.00 | 0.00 | 100 | 975.6 |
| 20260508093038 | 29 | 339 | 0.0 | 0.0 | 0.00 | 0.00 | 0.00 | 100 | 975.7 |
| 20260508092924 | 29 | 339 | 0.0 | 0.0 | 0.00 | 0.00 | 0.00 | 100 | 975.7 |
| 20260508092243 | 30 | 339 | 0.0 | 0.0 | 0.00 | 0.00 | 0.00 | 100 | 975.6 |
| 20260508091717 | 30 | 339 | 0.0 | 0.0 | 0.00 | 0.00 | 0.00 | 100 | 975.5 |
| 20260508091606 | 30 | 339 | 0.0 | 0.0 | 0.00 | 0.00 | 0.00 | 100 | 975.5 |
| 20260508090925 | 30 | 339 | 0.0 | 0.0 | 0.00 | 0.00 | 0.00 | 100 | 975.6 |
| 20260508090247 | 30 | 339 | 0.0 | 0.0 | 0.00 | 0.00 | 0.00 | 100 | 975.5 |
| 20260508085606 | 30 | 339 | 0.0 | 0.0 | 0.00 | 0.00 | 0.00 | 100 | 975.5 |
| 20260508084929 | 30 | 339 | 0.0 | 0.0 | 0.00 | 0.00 | 0.00 | 100 | 975.5 |
| 20260508084440 | 30 | 339 | 0.0 | 0.0 | 0.00 | 0.00 | 0.00 | 100 | 975.6 |
| 20260508084248 | 30 | 339 | 0.0 | 0.0 | 0.00 | 0.00 | 0.00 | 100 | 975.6 |
| 20260508083718 | 30 | 339 | 0.0 | 0.0 | 0.00 | 0.00 | 0.00 | 100 | 975.6 |
| 20260508083611 | 30 | 339 | 0.0 | 0.0 | 0.00 | 0.00 | 0.00 | 100 | 975.6 |
| 20260508083224 | 30 | 339 | 0.0 | 0.0 | 0.00 | 0.00 | 0.00 | 100 | 975.6 |
| 20260508082931 | 30 | 339 | 0.0 | 0.0 | 0.00 | 0.00 | 0.00 | 100 | 975.6 |
| 20260508082252 | 30 | 339 | 0.0 | 0.0 | 0.00 | 0.00 | 0.00 | 100 | 975.6 |
| 20260508081612 | 31 | 339 | 0.0 | 0.0 | 0.00 | 0.00 | 0.00 | 100 | 975.6 |
| 20260508081233 | 31 | 339 | 0.0 | 0.0 | 0.00 | 0.00 | 0.00 | 100 | 975.7 |
| 20260508080934 | 31 | 339 | 0.0 | 0.0 | 0.00 | 0.00 | 0.00 | 100 | 975.7 |
| 20260508080422 | 31 | 339 | 0.0 | 0.0 | 0.00 | 0.00 | 0.00 | 100 | 975.6 |
| 20260508080253 | 31 | 339 | 0.0 | 0.0 | 0.00 | 0.00 | 0.00 | 100 | 975.6 |
| 20260508075616 | 31 | 339 | 0.0 | 0.0 | 0.00 | 0.00 | 0.00 | 100 | 975.6 |
| 20260508074935 | 31 | 339 | 0.0 | 0.0 | 0.00 | 0.00 | 0.00 | 100 | 975.7 |
| 20260508074441 | 31 | 339 | 0.0 | 0.0 | 0.00 | 0.00 | 0.00 | 100 | 975.6 |
| 20260508074258 | 31 | 339 | 0.0 | 0.0 | 0.00 | 0.00 | 0.00 | 100 | 975.6 |
| 20260508073616 | 31 | 339 | 0.0 | 0.0 | 0.00 | 0.00 | 0.00 | 100 | 975.6 |
| 20260508072939 | 31 | 339 | 0.0 | 0.0 | 0.00 | 0.00 | 0.00 | 100 | 975.6 |
| 20260508072258 | 32 | 339 | 0.0 | 0.0 | 0.00 | 0.00 | 0.00 | 100 | 975.5 |
| 20260508071621 | 32 | 339 | 0.0 | 0.0 | 0.00 | 0.00 | 0.00 | 100 | 975.6 |
| 20260508070940 | 32 | 339 | 0.0 | 0.0 | 0.00 | 0.00 | 0.00 | 100 | 975.7 |
| 20260508070302 | 33 | 339 | 0.0 | 0.0 | 0.00 | 0.00 | 0.00 | 100 | 975.6 |
| 20260508065621 | 33 | 339 | 0.0 | 0.0 | 0.00 | 0.00 | 0.00 | 100 | 975.5 |
| 20260508064944 | 33 | 339 | 0.0 | 0.0 | 0.00 | 0.00 | 0.00 | 100 | 975.6 |
| 20260508064303 | 34 | 339 | 0.0 | 0.0 | 0.00 | 0.00 | 0.00 | 100 | 975.6 |
| 20260508063626 | 34 | 339 | 0.0 | 0.0 | 0.00 | 0.00 | 0.00 | 100 | 975.6 |
| 20260508062945 | 34 | 339 | 0.0 | 0.0 | 0.00 | 0.00 | 0.00 | 100 | 975.7 |
| 20260508062307 | 34 | 339 | 0.0 | 0.0 | 0.00 | 0.00 | 0.00 | 100 | 975.6 |
| 20260508061626 | 34 | 329 | 2.0 | 5.0 | 0.00 | 0.00 | 0.00 | 100 | 975.8 |
| 20260508060949 | 35 | 158 | 4.0 | 0.0 | 0.00 | 0.00 | 0.00 | 100 | 975.7 |
| 20260508060308 | 34 | 338 | 0.0 | 0.0 | 0.00 | 0.00 | 0.00 | 100 | 975.8 |
| 20260508055631 | 34 | 338 | 0.0 | 0.0 | 0.00 | 0.00 | 0.00 | 100 | 975.9 |
| 20260508054950 | 34 | 338 | 0.0 | 0.0 | 0.00 | 0.00 | 0.00 | 100 | 976.0 |
| 20260508054312 | 35 | 338 | 0.0 | 0.0 | 0.00 | 0.00 | 0.00 | 100 | 975.8 |
| 20260508053631 | 35 | 338 | 0.0 | 0.0 | 0.00 | 0.00 | 0.00 | 100 | 975.7 |
| 20260508052954 | 35 | 338 | 0.0 | 0.0 | 0.00 | 0.00 | 0.00 | 99 | 975.7 |
| 20260508052313 | 35 | 338 | 0.0 | 0.0 | 0.00 | 0.00 | 0.00 | 99 | 975.7 |
| 20260508051636 | 35 | 338 | 0.0 | 0.0 | 0.00 | 0.00 | 0.00 | 98 | 975.7 |
| 20260508050955 | 36 | 338 | 0.0 | 0.0 | 0.00 | 0.00 | 0.00 | 98 | 975.8 |
| 20260508050317 | 36 | 338 | 0.0 | 0.0 | 0.00 | 0.00 | 0.00 | 98 | 975.7 |
| 20260508045636 | 36 | 338 | 0.0 | 0.0 | 0.00 | 0.00 | 0.00 | 97 | 975.7 |
| 20260508044959 | 37 | 338 | 0.0 | 0.0 | 0.00 | 0.00 | 0.00 | 97 | 975.5 |
| 20260508044318 | 37 | 338 | 0.0 | 0.0 | 0.00 | 0.00 | 0.00 | 96 | 975.6 |
| 20260508043641 | 37 | 338 | 0.0 | 0.0 | 0.00 | 0.00 | 0.00 | 96 | 975.5 |
| 20260508043000 | 38 | 338 | 0.0 | 0.0 | 0.00 | 0.00 | 0.00 | 95 | 975.5 |
| 20260508042322 | 38 | 338 | 0.0 | 0.0 | 0.00 | 0.00 | 0.00 | 94 | 975.5 |
| 20260508041641 | 39 | 338 | 0.0 | 0.0 | 0.00 | 0.00 | 0.00 | 94 | 975.5 |
| 20260508041004 | 39 | 338 | 0.0 | 0.0 | 0.00 | 0.00 | 0.00 | 94 | 975.5 |
| 20260508040323 | 39 | 338 | 0.0 | 0.0 | 0.00 | 0.00 | 0.00 | 93 | 975.6 |
| 20260508035646 | 40 | 338 | 0.0 | 0.0 | 0.00 | 0.00 | 0.00 | 92 | 975.6 |
| 20260508034327 | 40 | 338 | 0.0 | 0.0 | 0.00 | 0.00 | 0.00 | 92 | 975.5 |
| 20260508033009 | 41 | 338 | 0.0 | 0.0 | 0.00 | 0.00 | 0.00 | 91 | 975.6 |
| 20260508032328 | 41 | 338 | 0.0 | 0.0 | 0.00 | 0.00 | 0.00 | 91 | 975.5 |
| 20260508031651 | 41 | 338 | 0.0 | 0.0 | 0.00 | 0.00 | 0.00 | 91 | 975.6 |
| 20260508030332 | 41 | 338 | 0.0 | 0.0 | 0.00 | 0.00 | 0.00 | 91 | 975.6 |
| 20260508025651 | 41 | 338 | 0.0 | 0.0 | 0.00 | 0.00 | 0.00 | 91 | 975.5 |
| 20260508025014 | 40 | 338 | 0.0 | 0.0 | 0.00 | 0.00 | 0.00 | 90 | 975.5 |
| 20260508024333 | 40 | 338 | 0.0 | 0.0 | 0.00 | 0.00 | 0.00 | 90 | 975.5 |
| 20260508023655 | 40 | 338 | 0.0 | 0.0 | 0.00 | 0.00 | 0.00 | 90 | 975.5 |
| 20260508023015 | 40 | 338 | 0.0 | 0.0 | 0.00 | 0.00 | 0.00 | 90 | 975.4 |
| 20260508022337 | 41 | 338 | 0.0 | 0.0 | 0.00 | 0.00 | 0.00 | 90 | 975.3 |
| 20260508021656 | 41 | 338 | 0.0 | 0.0 | 0.00 | 0.00 | 0.00 | 88 | 975.2 |
| 20260508021019 | 41 | 338 | 0.0 | 0.0 | 0.00 | 0.00 | 0.00 | 87 | 975.1 |
| 20260508020338 | 41 | 338 | 0.0 | 0.0 | 0.00 | 0.00 | 0.00 | 86 | 975.1 |
| 20260508015700 | 42 | 338 | 0.0 | 0.0 | 0.00 | 0.00 | 0.00 | 85 | 975.0 |
| 20260508015019 | 42 | 338 | 0.0 | 0.0 | 0.00 | 0.00 | 0.00 | 84 | 975.0 |
| 20260508014342 | 42 | 338 | 0.0 | 0.0 | 0.00 | 0.00 | 0.00 | 83 | 974.8 |
| 20260508013701 | 43 | 338 | 0.0 | 0.0 | 0.00 | 0.00 | 0.00 | 81 | 974.7 |
| 20260508013024 | 43 | 338 | 0.0 | 0.0 | 0.00 | 0.00 | 0.00 | 81 | 974.6 |
| 20260508012343 | 43 | 338 | 0.0 | 0.0 | 0.00 | 0.00 | 0.00 | 81 | 974.5 |
| 20260508011705 | 44 | 338 | 0.0 | 0.0 | 0.00 | 0.00 | 0.00 | 80 | 974.4 |
| 20260508011024 | 44 | 338 | 0.0 | 0.0 | 0.00 | 0.00 | 0.00 | 78 | 974.3 |
| 20260508010347 | 45 | 338 | 0.0 | 0.0 | 0.00 | 0.00 | 0.00 | 76 | 974.3 |
| 20260508005706 | 45 | 338 | 0.0 | 0.0 | 0.00 | 0.00 | 0.00 | 74 | 974.1 |
| 20260508005029 | 46 | 338 | 0.0 | 0.0 | 0.00 | 0.00 | 0.00 | 73 | 974.1 |
| 20260508004348 | 46 | 338 | 0.0 | 0.0 | 0.00 | 0.00 | 0.00 | 73 | 974.0 |
| 20260508003710 | 46 | 338 | 0.0 | 0.0 | 0.00 | 0.00 | 0.00 | 74 | 974.0 |
| 20260508002352 | 46 | 338 | 0.0 | 0.0 | 0.00 | 0.00 | 0.00 | 72 | 974.0 |
| 20260508001711 | 47 | 338 | 0.0 | 0.0 | 0.00 | 0.00 | 0.00 | 71 | 974.0 |
| 20260508001034 | 47 | 338 | 0.0 | 0.0 | 0.00 | 0.00 | 0.00 | 70 | 974.0 |
| 20260508000353 | 47 | 338 | 0.0 | 0.0 | 0.00 | 0.00 | 0.00 | 70 | 974.1 |
| 20260507235715 | 47 | 338 | 0.0 | 0.0 | 0.00 | 0.00 | 0.00 | 69 | 974.0 |
| 20260507235034 | 47 | 338 | 0.0 | 0.0 | 0.00 | 0.00 | 0.00 | 69 | 974.1 |
| 20260507234359 | 47 | 338 | 0.0 | 0.0 | 0.00 | 0.00 | 0.00 | 69 | 974.2 |
| 20260507233716 | 47 | 338 | 0.0 | 0.0 | 0.00 | 0.00 | 0.00 | 69 | 974.3 |
| 20260507233039 | 47 | 338 | 0.0 | 0.0 | 0.00 | 0.00 | 0.00 | 69 | 974.2 |
| 20260507232358 | 46 | 338 | 0.0 | 0.0 | 0.00 | 0.00 | 0.00 | 69 | 974.3 |
| 20260507231720 | 46 | 314 | 0.0 | 0.0 | 0.00 | 0.00 | 0.00 | 70 | 974.4 |
| 20260507231039 | 46 | 308 | 0.0 | 0.0 | 0.00 | 0.00 | 0.00 | 69 | 974.4 |
| 20260507230402 | 46 | 308 | 0.0 | 0.0 | 0.00 | 0.00 | 0.00 | 70 | 974.3 |
| 20260507225721 | 46 | 307 | 0.0 | 0.0 | 0.00 | 0.00 | 0.00 | 70 | 974.5 |
| 20260507225044 | 46 | 319 | 0.0 | 0.0 | 0.00 | 0.00 | 0.00 | 70 | 974.5 |
| 20260507224403 | 46 | 325 | 3.0 | 4.0 | 0.00 | 0.00 | 0.00 | 69 | 974.5 |
| 20260507223725 | 46 | 350 | 2.0 | 5.0 | 0.00 | 0.00 | 0.00 | 69 | 974.3 |
| 20260507223045 | 47 | 338 | 4.0 | 6.0 | 0.00 | 0.00 | 0.00 | 68 | 974.3 |
| 20260507222407 | 47 | 28 | 2.0 | 0.0 | 0.00 | 0.00 | 0.00 | 67 | 974.3 |
| 20260507221726 | 48 | 1 | 6.0 | 9.0 | 0.00 | 0.00 | 0.00 | 65 | 974.3 |
| 20260507221133 | 49 | 335 | 3.0 | 8.0 | 0.00 | 0.00 | 0.00 | 60 | 974.2 |
| 20260507221049 | 49 | 335 | 3.0 | 8.0 | 0.00 | 0.00 | 0.00 | 60 | 974.2 |
| 20260507215852 | 49 | 17 | 2.0 | 0.0 | 0.00 | 0.00 | 0.00 | 58 | 974.4 |
| 20260507215731 | 49 | 17 | 2.0 | 0.0 | 0.00 | 0.00 | 0.00 | 58 | 974.4 |
| 20260507215307 | 49 | 336 | 5.0 | 0.0 | 0.00 | 0.00 | 0.00 | 58 | 974.3 |
| 20260507215050 | 49 | 336 | 5.0 | 0.0 | 0.00 | 0.00 | 0.00 | 58 | 974.3 |
| 20260507214532 | 49 | 260 | 2.0 | 3.0 | 0.00 | 0.00 | 0.00 | 57 | 974.3 |
| 20260507214412 | 49 | 260 | 2.0 | 3.0 | 0.00 | 0.00 | 0.00 | 57 | 974.3 |
| 20260507213809 | 49 | 153 | 5.0 | 0.0 | 0.00 | 0.00 | 0.00 | 56 | 974.2 |
| 20260507213731 | 49 | 153 | 5.0 | 0.0 | 0.00 | 0.00 | 0.00 | 56 | 974.2 |
| 20260507213054 | 49 | 186 | 2.0 | 3.0 | 0.00 | 0.00 | 0.00 | 56 | 974.3 |
| 20260507212534 | 49 | 284 | 2.0 | 0.0 | 0.00 | 0.00 | 0.00 | 56 | 974.3 |
| 20260507212413 | 49 | 284 | 2.0 | 0.0 | 0.00 | 0.00 | 0.00 | 56 | 974.3 |
| 20260507211842 | 49 | 273 | 2.0 | 4.0 | 0.00 | 0.00 | 0.00 | 56 | 974.2 |
| 20260507211736 | 49 | 273 | 2.0 | 4.0 | 0.00 | 0.00 | 0.00 | 56 | 974.2 |
| 20260507211055 | 49 | 312 | 2.0 | 4.0 | 0.00 | 0.00 | 0.00 | 56 | 974.1 |
| 20260507210502 | 50 | 304 | 2.0 | 0.0 | 0.00 | 0.00 | 0.00 | 54 | 974.2 |
| 20260507210417 | 50 | 304 | 2.0 | 0.0 | 0.00 | 0.00 | 0.00 | 54 | 974.2 |
| 20260507205926 | 50 | 300 | 5.0 | 3.0 | 0.00 | 0.00 | 0.00 | 53 | 974.3 |
| 20260507205737 | 50 | 300 | 5.0 | 3.0 | 0.00 | 0.00 | 0.00 | 53 | 974.3 |
| 20260507205059 | 50 | 359 | 1.0 | 0.0 | 0.00 | 0.00 | 0.00 | 50 | 974.2 |
| 20260507204622 | 50 | 231 | 2.0 | 5.0 | 0.00 | 0.00 | 0.00 | 50 | 974.2 |
| 20260507204418 | 50 | 231 | 2.0 | 5.0 | 0.00 | 0.00 | 0.00 | 50 | 974.2 |
| 20260507203741 | 51 | 259 | 2.0 | 0.0 | 0.00 | 0.00 | 0.00 | 49 | 974.2 |
| 20260507202621 | 51 | 281 | 4.0 | 6.0 | 0.00 | 0.00 | 0.00 | 49 | 974.4 |
| 20260507202423 | 51 | 281 | 4.0 | 6.0 | 0.00 | 0.00 | 0.00 | 49 | 974.4 |
| 20260507201917 | 50 | 257 | 2.0 | 0.0 | 0.00 | 0.00 | 0.00 | 50 | 974.5 |
| 20260507201742 | 50 | 257 | 2.0 | 0.0 | 0.00 | 0.00 | 0.00 | 50 | 974.5 |
| 20260507200424 | 50 | 277 | 2.0 | 0.0 | 0.00 | 0.00 | 0.00 | 50 | 974.6 |
| 20260507195858 | 50 | 236 | 4.0 | 5.0 | 0.00 | 0.00 | 0.00 | 50 | 974.6 |
| 20260507195746 | 50 | 236 | 4.0 | 5.0 | 0.00 | 0.00 | 0.00 | 50 | 974.6 |
| 20260507195105 | 49 | 208 | 1.0 | 0.0 | 0.00 | 0.00 | 0.00 | 50 | 974.6 |
| 20260507194428 | 49 | 243 | 1.0 | 0.0 | 0.00 | 0.00 | 0.00 | 50 | 974.7 |
| 20260507193747 | 50 | 211 | 4.0 | 2.0 | 0.00 | 0.00 | 0.00 | 49 | 974.5 |
| 20260507193110 | 50 | 273 | 6.0 | 6.0 | 0.00 | 0.00 | 0.00 | 48 | 974.5 |
| 20260507192429 | 51 | 280 | 4.0 | 0.0 | 0.00 | 0.00 | 0.00 | 48 | 974.5 |
| 20260507191751 | 52 | 256 | 4.0 | 0.0 | 0.00 | 0.00 | 0.00 | 47 | 974.5 |
| 20260507191111 | 50 | 300 | 9.0 | 4.0 | 0.00 | 0.00 | 0.00 | 50 | 974.4 |
| 20260507190433 | 50 | 267 | 7.0 | 4.0 | 0.00 | 0.00 | 0.00 | 50 | 974.5 |
| 20260507185752 | 50 | 295 | 3.0 | 5.0 | 0.00 | 0.00 | 0.00 | 49 | 974.4 |
| 20260507185115 | 51 | 300 | 6.0 | 4.0 | 0.00 | 0.00 | 0.00 | 48 | 974.5 |
| 20260507184434 | 51 | 333 | 8.0 | 10.0 | 0.00 | 0.00 | 0.00 | 48 | 974.4 |
| 20260507183757 | 51 | 294 | 6.0 | 10.0 | 0.00 | 0.00 | 0.00 | 48 | 974.4 |
| 20260507183223 | 51 | 263 | 0.0 | 6.0 | 0.00 | 0.00 | 0.00 | 49 | 974.4 |
| 20260507183116 | 51 | 263 | 0.0 | 6.0 | 0.00 | 0.00 | 0.00 | 49 | 974.4 |
| 20260507182439 | 52 | 312 | 9.0 | 0.0 | 0.00 | 0.00 | 0.00 | 47 | 974.4 |
| 20260507181758 | 51 | 276 | 7.0 | 0.0 | 0.00 | 0.00 | 0.00 | 50 | 974.4 |
| 20260507181120 | 51 | 219 | 9.0 | 0.0 | 0.00 | 0.00 | 0.00 | 49 | 974.6 |
| 20260507180440 | 51 | 198 | 8.0 | 0.0 | 0.00 | 0.00 | 0.00 | 50 | 974.6 |
| 20260507175802 | 51 | 277 | 1.0 | 9.0 | 0.00 | 0.00 | 0.00 | 50 | 974.7 |
| 20260507175351 | 51 | 236 | 2.0 | 3.0 | 0.00 | 0.00 | 0.00 | 53 | 974.6 |
| 20260507175121 | 51 | 236 | 2.0 | 3.0 | 0.00 | 0.00 | 0.00 | 53 | 974.6 |
| 20260507174444 | 50 | 271 | 7.0 | 10.0 | 0.00 | 0.00 | 0.00 | 52 | 974.7 |
| 20260507173803 | 50 | 242 | 5.0 | 8.0 | 0.00 | 0.00 | 0.00 | 53 | 974.9 |
| 20260507173126 | 49 | 246 | 6.0 | 5.0 | 0.00 | 0.00 | 0.00 | 55 | 975.0 |
| 20260507172445 | 49 | 352 | 3.0 | 0.0 | 0.00 | 0.00 | 0.00 | 56 | 975.1 |